CCA4119 ZUUU-ZBAA

Flight info

Callsign CCA4119
Flight time 2h 10m
Altitude 37100
Route ZUUU GURET W233 AGULU W81 APIMI W275 NSH G212 AMVOG W61 NUDKU W56 DUGEB ZBAA
Aircraft A359/H-SDE2E3FGHIJ4J5M1RWXYZ/LB2D1

Departure

Time 2026-05-04 22:59
Airport Chengdu Shuangliu International Airport (ZUUU)

Arrival

Time 2026-05-05 01:10
Airport Beijing Capital International Airport (ZBAA)
Time Latitude Longitude Altitude Speed Heading
2026-05-04 22:21 30.56869 103.95115 1653 ft 0 kts 24°
2026-05-04 22:49 30.56862 103.95111 1653 ft 4 kts 24°
2026-05-04 22:49 30.56838 103.95099 1653 ft 4 kts 24°
2026-05-04 22:50 30.56814 103.95087 1653 ft 4 kts 24°
2026-05-04 22:50 30.56789 103.95074 1653 ft 4 kts 21°
2026-05-04 22:50 30.56764 103.95065 1653 ft 4 kts
2026-05-04 22:50 30.56742 103.95066 1653 ft 4 kts 311°
2026-05-04 22:51 30.56733 103.95085 1653 ft 4 kts 292°
2026-05-04 22:51 30.56725 103.95110 1653 ft 1 kts 292°
2026-05-04 22:51 30.56725 103.95111 1653 ft 0 kts 292°
2026-05-04 22:54 30.56733 103.95086 1653 ft 7 kts 292°
2026-05-04 22:54 30.56761 103.95008 1653 ft 12 kts 291°
2026-05-04 22:54 30.56791 103.94920 1653 ft 13 kts 291°
2026-05-04 22:54 30.56825 103.94820 1653 ft 15 kts 291°
2026-05-04 22:55 30.56859 103.94729 1653 ft 10 kts 293°
2026-05-04 22:55 30.56888 103.94645 1653 ft 12 kts 291°
2026-05-04 22:55 30.56862 103.94567 1653 ft 12 kts 214°
2026-05-04 22:55 30.56783 103.94529 1653 ft 13 kts 201°
2026-05-04 22:56 30.56697 103.94487 1654 ft 15 kts 203°
2026-05-04 22:56 30.56601 103.94442 1654 ft 16 kts 201°
2026-05-04 22:56 30.56494 103.94392 1653 ft 17 kts 202°
2026-05-04 22:56 30.56385 103.94340 1654 ft 11 kts 202°
2026-05-04 22:57 30.56309 103.94305 1654 ft 11 kts 202°
2026-05-04 22:57 30.56273 103.94244 1653 ft 10 kts 276°
2026-05-04 22:57 30.56296 103.94167 1654 ft 11 kts 291°
2026-05-04 22:57 30.56327 103.94073 1654 ft 13 kts 291°
2026-05-04 22:58 30.56370 103.94017 1653 ft 7 kts 357°
2026-05-04 22:58 30.56420 103.94038 1671 ft 8 kts 22°
2026-05-04 22:58 30.56500 103.94075 1666 ft 30 kts 21°
2026-05-04 22:58 30.56920 103.94270 1653 ft 98 kts 21°
2026-05-04 22:59 30.57748 103.94653 1654 ft 155 kts 21°
2026-05-04 22:59 30.58863 103.95158 1983 ft 178 kts 21°
2026-05-04 22:59 30.60046 103.95691 2419 ft 195 kts 22°
2026-05-04 22:59 30.61388 103.96305 2898 ft 208 kts 22°
2026-05-04 23:00 30.62732 103.96918 3505 ft 212 kts 22°
2026-05-04 23:00 30.64071 103.97553 4084 ft 216 kts 23°
2026-05-04 23:00 30.65448 103.98213 4698 ft 219 kts 22°
2026-05-04 23:00 30.66868 103.98958 5208 ft 230 kts 30°
2026-05-04 23:01 30.68041 104.00201 5681 ft 241 kts 55°
2026-05-04 23:01 30.68917 104.01757 6160 ft 254 kts 60°
2026-05-04 23:01 30.69861 104.03565 6643 ft 270 kts 59°
2026-05-04 23:01 30.70875 104.05430 7148 ft 284 kts 58°
2026-05-04 23:02 30.71963 104.07404 7655 ft 291 kts 58°
2026-05-04 23:02 30.73059 104.09403 8272 ft 294 kts 58°
2026-05-04 23:02 30.74120 104.11336 8883 ft 298 kts 58°
2026-05-04 23:02 30.75427 104.13272 9493 ft 305 kts 41°
2026-05-04 23:03 30.77217 104.14541 10128 ft 309 kts 21°
2026-05-04 23:03 30.79254 104.15525 10551 ft 327 kts 20°
2026-05-04 23:03 30.81377 104.16518 10798 ft 348 kts 20°
2026-05-04 23:03 30.83635 104.17587 11048 ft 368 kts 21°
2026-05-04 23:04 30.86094 104.18763 11370 ft 384 kts 21°
2026-05-04 23:04 30.88537 104.19941 12052 ft 384 kts 21°
2026-05-04 23:04 30.90985 104.21197 12829 ft 385 kts 26°
2026-05-04 23:04 30.93157 104.22871 13547 ft 387 kts 39°
2026-05-04 23:05 30.94946 104.25144 14174 ft 391 kts 53°
2026-05-04 23:05 30.96222 104.27960 14762 ft 396 kts 68°
2026-05-04 23:05 30.96863 104.31088 15352 ft 400 kts 81°
2026-05-04 23:05 30.97150 104.34334 15911 ft 404 kts 83°
2026-05-04 23:06 30.97403 104.37616 16480 ft 407 kts 82°
2026-05-04 23:06 30.97666 104.40910 17072 ft 410 kts 82°
2026-05-04 23:06 30.97935 104.44230 17671 ft 413 kts 81°
2026-05-04 23:06 30.98205 104.47536 18269 ft 416 kts 81°
2026-05-04 23:07 30.98482 104.50905 18789 ft 420 kts 81°
2026-05-04 23:07 30.98763 104.54315 19294 ft 424 kts 80°
2026-05-04 23:07 30.99045 104.57744 19840 ft 428 kts 80°
2026-05-04 23:07 30.99328 104.61202 20378 ft 431 kts 80°
2026-05-04 23:08 30.99613 104.64689 20884 ft 435 kts 80°
2026-05-04 23:08 30.99900 104.68211 21404 ft 438 kts 80°
2026-05-04 23:08 31.00187 104.71763 21913 ft 442 kts 80°
2026-05-04 23:08 31.00476 104.75342 22417 ft 446 kts 79°
2026-05-04 23:09 31.00767 104.78956 22934 ft 449 kts 79°
2026-05-04 23:09 31.01061 104.82613 23453 ft 453 kts 79°
2026-05-04 23:09 31.01351 104.86231 23876 ft 457 kts 79°
2026-05-04 23:09 31.01647 104.89945 24280 ft 461 kts 79°
2026-05-04 23:10 31.01999 104.93674 24726 ft 463 kts 75°
2026-05-04 23:10 31.02784 104.97233 25101 ft 458 kts 63°
2026-05-04 23:10 31.04157 105.00523 25575 ft 451 kts 52°
2026-05-04 23:10 31.05854 105.03633 26073 ft 452 kts 51°
2026-05-04 23:11 31.07577 105.06763 26551 ft 455 kts 51°
2026-05-04 23:11 31.09254 105.09831 26987 ft 458 kts 51°
2026-05-04 23:11 31.11006 105.13040 27460 ft 461 kts 51°
2026-05-04 23:11 31.12735 105.16210 27923 ft 464 kts 51°
2026-05-04 23:12 31.14471 105.19398 28356 ft 467 kts 51°
2026-05-04 23:12 31.16179 105.22538 28789 ft 470 kts 51°
2026-05-04 23:12 31.17894 105.25689 29233 ft 472 kts 51°
2026-05-04 23:12 31.19729 105.29062 29713 ft 475 kts 50°
2026-05-04 23:13 31.21499 105.32325 30250 ft 474 kts 50°
2026-05-04 23:13 31.23244 105.35538 30561 ft 477 kts 50°
2026-05-04 23:13 31.25049 105.38816 30812 ft 481 kts 49°
2026-05-04 23:13 31.26908 105.42072 31076 ft 483 kts 49°
2026-05-04 23:14 31.28772 105.45283 31339 ft 487 kts 49°
2026-05-04 23:14 31.30738 105.48666 31601 ft 491 kts 49°
2026-05-04 23:14 31.32634 105.51940 31859 ft 494 kts 49°
2026-05-04 23:14 31.34557 105.55280 32133 ft 497 kts 49°
2026-05-04 23:15 31.36486 105.58649 32447 ft 498 kts 49°
2026-05-04 23:15 31.38409 105.62022 32817 ft 499 kts 49°
2026-05-04 23:15 31.40248 105.65259 33371 ft 494 kts 49°
2026-05-04 23:15 31.42128 105.68585 33983 ft 487 kts 49°
2026-05-04 23:16 31.44008 105.71897 34196 ft 490 kts 48°
2026-05-04 23:16 31.45907 105.75228 34351 ft 493 kts 48°
2026-05-04 23:16 31.47814 105.78573 34601 ft 494 kts 48°
2026-05-04 23:16 31.49717 105.81918 34833 ft 495 kts 48°
2026-05-04 23:17 31.51627 105.85285 35037 ft 497 kts 48°
2026-05-04 23:17 31.53538 105.88656 35250 ft 499 kts 48°
2026-05-04 23:17 31.55428 105.91994 35449 ft 501 kts 48°
2026-05-04 23:17 31.57360 105.95411 35675 ft 502 kts 48°
2026-05-04 23:18 31.59287 105.98822 35882 ft 503 kts 48°
2026-05-04 23:18 31.61198 106.02210 36223 ft 502 kts 48°
2026-05-04 23:18 31.63121 106.05626 36513 ft 502 kts 48°
2026-05-04 23:18 31.65049 106.09047 36663 ft 504 kts 47°
2026-05-04 23:19 31.66988 106.12487 36837 ft 506 kts 48°
2026-05-04 23:19 31.68931 106.15934 37008 ft 507 kts 47°
2026-05-04 23:19 31.72825 106.22854 37051 ft 507 kts 48°
2026-05-04 23:20 31.76699 106.29775 37045 ft 507 kts 48°
2026-05-04 23:20 31.80581 106.36708 37066 ft 507 kts 48°
2026-05-04 23:21 31.84445 106.43634 37050 ft 505 kts 48°
2026-05-04 23:21 31.88263 106.50487 37063 ft 503 kts 48°
2026-05-04 23:22 31.92102 106.57373 37062 ft 503 kts 48°
2026-05-04 23:22 31.95945 106.64283 37064 ft 504 kts 49°
2026-05-04 23:23 31.99777 106.71205 37071 ft 504 kts 49°
2026-05-04 23:23 32.03614 106.78137 37082 ft 505 kts 49°
2026-05-04 23:24 32.07437 106.85057 37062 ft 502 kts 49°
2026-05-04 23:24 32.11244 106.91952 37061 ft 501 kts 49°
2026-05-04 23:25 32.15042 106.98842 37063 ft 501 kts 49°
2026-05-04 23:25 32.18846 107.05764 37090 ft 502 kts 49°
2026-05-04 23:26 32.22616 107.12643 37080 ft 503 kts 49°
2026-05-04 23:26 32.26219 107.19757 37085 ft 511 kts 58°
2026-05-04 23:27 32.28852 107.27601 37086 ft 514 kts 62°
2026-05-04 23:27 32.31289 107.35546 37090 ft 514 kts 63°
2026-05-04 23:28 32.33705 107.43507 37097 ft 515 kts 63°
2026-05-04 23:28 32.36144 107.51498 37093 ft 517 kts 63°
2026-05-04 23:29 32.38584 107.59485 37089 ft 516 kts 63°
2026-05-04 23:29 32.41012 107.67450 37096 ft 517 kts 63°
2026-05-04 23:30 32.43446 107.75464 37104 ft 517 kts 63°
2026-05-04 23:30 32.45869 107.83448 37081 ft 514 kts 63°
2026-05-04 23:31 32.48310 107.91403 37083 ft 512 kts 60°
2026-05-04 23:31 32.49861 107.95145 37081 ft 501 kts 51°
2026-05-04 23:31 32.51814 107.98461 37093 ft 493 kts 42°
2026-05-04 23:32 32.54174 108.01334 37082 ft 481 kts 33°
2026-05-04 23:32 32.56841 108.03652 37079 ft 470 kts 24°
2026-05-04 23:32 32.61754 108.06246 37069 ft 457 kts 11°
2026-05-04 23:33 32.68798 108.08789 37065 ft 455 kts
2026-05-04 23:33 32.73894 108.10544 37066 ft 455 kts
2026-05-04 23:34 32.79973 108.12664 37065 ft 455 kts 10°
2026-05-04 23:34 32.86007 108.14802 37062 ft 456 kts 10°
2026-05-04 23:35 32.92085 108.16964 37064 ft 455 kts 10°
2026-05-04 23:35 32.98141 108.19115 37063 ft 454 kts 10°
2026-05-04 23:36 33.04196 108.21274 37055 ft 453 kts 10°
2026-05-04 23:36 33.10250 108.23435 37059 ft 453 kts 10°
2026-05-04 23:37 33.16297 108.25595 37067 ft 452 kts 11°
2026-05-04 23:37 33.22286 108.27738 37062 ft 451 kts 11°
2026-05-04 23:38 33.28301 108.29893 37060 ft 451 kts 11°
2026-05-04 23:38 33.34193 108.32591 37066 ft 458 kts 18°
2026-05-04 23:39 33.39940 108.35922 37069 ft 458 kts 20°
2026-05-04 23:39 33.45642 108.39326 37053 ft 458 kts 20°
2026-05-04 23:40 33.51345 108.42740 37072 ft 458 kts 20°
2026-05-04 23:40 33.57024 108.46132 37053 ft 458 kts 20°
2026-05-04 23:41 33.62732 108.49540 37058 ft 457 kts 20°
2026-05-04 23:41 33.68407 108.52931 37037 ft 455 kts 20°
2026-05-04 23:42 33.74081 108.56329 37025 ft 456 kts 20°
2026-05-04 23:42 33.79765 108.59733 37028 ft 457 kts 20°
2026-05-04 23:43 33.85447 108.63144 37010 ft 455 kts 20°
2026-05-04 23:43 33.91111 108.66555 36986 ft 454 kts 20°
2026-05-04 23:44 33.96769 108.69965 36986 ft 455 kts 20°
2026-05-04 23:44 34.02426 108.73379 36975 ft 455 kts 20°
2026-05-04 23:45 34.08040 108.76769 36975 ft 454 kts 20°
2026-05-04 23:45 34.13693 108.80187 36966 ft 455 kts 21°
2026-05-04 23:46 34.19377 108.83595 36948 ft 455 kts 18°
2026-05-04 23:46 34.25358 108.85784 36951 ft 445 kts
2026-05-04 23:47 34.31465 108.86904 36953 ft 443 kts
2026-05-04 23:47 34.37575 108.87881 36958 ft 443 kts
2026-05-04 23:48 34.43699 108.88855 36954 ft 443 kts
2026-05-04 23:48 34.49799 108.89847 36947 ft 443 kts
2026-05-04 23:49 34.55905 108.90849 36957 ft 442 kts
2026-05-04 23:49 34.61919 108.92290 36949 ft 446 kts 11°
2026-05-04 23:50 34.67877 108.94363 36963 ft 446 kts 12°
2026-05-04 23:50 34.73844 108.96526 36949 ft 446 kts 12°
2026-05-04 23:51 34.79789 108.98690 36957 ft 445 kts 12°
2026-05-04 23:51 34.85717 109.00881 36959 ft 445 kts 13°
2026-05-04 23:52 34.91614 109.03226 36959 ft 446 kts 13°
2026-05-04 23:52 34.97507 109.05591 36958 ft 446 kts 13°
2026-05-04 23:53 35.03382 109.07928 36971 ft 445 kts 13°
2026-05-04 23:53 35.09290 109.10268 36968 ft 445 kts 13°
2026-05-04 23:54 35.15149 109.12589 36974 ft 446 kts 13°
2026-05-04 23:54 35.21086 109.14944 36979 ft 451 kts 13°
2026-05-04 23:55 35.27075 109.17324 36967 ft 452 kts 13°
2026-05-04 23:56 35.36056 109.20905 36971 ft 452 kts 13°
2026-05-04 23:56 35.42048 109.23297 36976 ft 452 kts 13°
2026-05-04 23:57 35.48028 109.25688 36974 ft 451 kts 14°
2026-05-04 23:57 35.53995 109.28078 36975 ft 451 kts 14°
2026-05-04 23:58 35.59949 109.30466 36973 ft 451 kts 14°
2026-05-04 23:58 35.65919 109.32864 36974 ft 451 kts 14°
2026-05-04 23:59 35.71857 109.35289 36970 ft 450 kts 16°
2026-05-04 23:59 35.77417 109.38955 36970 ft 461 kts 31°
2026-05-05 00:00 35.81964 109.44605 36978 ft 474 kts 45°
2026-05-05 00:00 35.85897 109.51160 36978 ft 479 kts 49°
2026-05-05 00:01 35.89792 109.57890 36959 ft 481 kts 49°
2026-05-05 00:01 35.93694 109.64612 36959 ft 481 kts 49°
2026-05-05 00:02 35.97609 109.71322 36959 ft 481 kts 48°
2026-05-05 00:02 36.01498 109.77980 36960 ft 481 kts 49°
2026-05-05 00:03 36.05409 109.84688 36964 ft 483 kts 49°
2026-05-05 00:03 36.09338 109.91443 36956 ft 484 kts 49°
2026-05-05 00:04 36.13268 109.98214 36965 ft 484 kts 49°
2026-05-05 00:04 36.17186 110.04978 36961 ft 484 kts 49°
2026-05-05 00:05 36.21101 110.11750 36966 ft 484 kts 49°
2026-05-05 00:05 36.25009 110.18539 36964 ft 485 kts 50°
2026-05-05 00:06 36.28922 110.25351 36964 ft 485 kts 50°
2026-05-05 00:06 36.32842 110.32184 36958 ft 485 kts 50°
2026-05-05 00:07 36.36752 110.39015 36964 ft 486 kts 50°
2026-05-05 00:07 36.40658 110.45856 36967 ft 485 kts 50°
2026-05-05 00:08 36.44537 110.52657 36966 ft 486 kts 50°
2026-05-05 00:08 36.48439 110.59510 36957 ft 486 kts 50°
2026-05-05 00:09 36.52346 110.66392 36946 ft 486 kts 50°
2026-05-05 00:09 36.56248 110.73273 36967 ft 486 kts 50°
2026-05-05 00:10 36.60144 110.80165 36973 ft 486 kts 50°
2026-05-05 00:10 36.64027 110.87049 36969 ft 487 kts 50°
2026-05-05 00:11 36.67916 110.93952 36975 ft 487 kts 50°
2026-05-05 00:11 36.71917 111.00684 36988 ft 483 kts 44°
2026-05-05 00:12 36.76359 111.06971 36977 ft 482 kts 44°
2026-05-05 00:12 36.80842 111.13178 36976 ft 482 kts 43°
2026-05-05 00:13 36.85343 111.19401 36986 ft 483 kts 44°
2026-05-05 00:13 36.89833 111.25647 36982 ft 483 kts 44°
2026-05-05 00:14 36.94324 111.31912 36990 ft 483 kts 44°
2026-05-05 00:14 36.98807 111.38178 36989 ft 483 kts 44°
2026-05-05 00:15 37.03286 111.44446 36983 ft 483 kts 44°
2026-05-05 00:15 37.07739 111.50692 36989 ft 484 kts 44°
2026-05-05 00:16 37.12217 111.56987 36994 ft 483 kts 44°
2026-05-05 00:16 37.16685 111.63279 36987 ft 483 kts 44°
2026-05-05 00:17 37.21158 111.69589 36990 ft 483 kts 44°
2026-05-05 00:17 37.25478 111.76005 36991 ft 487 kts 51°
2026-05-05 00:18 37.28879 111.83431 37000 ft 492 kts 58°
2026-05-05 00:18 37.32014 111.91064 36992 ft 492 kts 58°
2026-05-05 00:19 37.35125 111.98740 36987 ft 492 kts 59°
2026-05-05 00:19 37.38239 112.06416 36990 ft 492 kts 58°
2026-05-05 00:20 37.41358 112.14085 36990 ft 492 kts 59°
2026-05-05 00:20 37.43953 112.20474 37001 ft 493 kts 59°
2026-05-05 00:21 37.47574 112.29408 36990 ft 493 kts 59°
2026-05-05 00:21 37.50179 112.35851 36993 ft 493 kts 59°
2026-05-05 00:22 37.53280 112.43543 36989 ft 493 kts 59°
2026-05-05 00:22 37.56380 112.51251 37004 ft 493 kts 59°
2026-05-05 00:23 37.59479 112.58979 36997 ft 493 kts 59°
2026-05-05 00:23 37.62579 112.66704 37018 ft 494 kts 59°
2026-05-05 00:24 37.65674 112.74440 37010 ft 494 kts 59°
2026-05-05 00:24 37.68757 112.82138 37006 ft 494 kts 59°
2026-05-05 00:25 37.71848 112.89881 37001 ft 494 kts 59°
2026-05-05 00:25 37.74936 112.97639 36999 ft 494 kts 59°
2026-05-05 00:26 37.78016 113.05414 36992 ft 494 kts 59°
2026-05-05 00:26 37.81083 113.13173 36987 ft 494 kts 59°
2026-05-05 00:27 37.84156 113.20964 36985 ft 494 kts 59°
2026-05-05 00:27 37.87209 113.28723 36982 ft 494 kts 59°
2026-05-05 00:28 37.90268 113.36517 36970 ft 494 kts 60°
2026-05-05 00:28 37.93325 113.44325 36982 ft 494 kts 59°
2026-05-05 00:29 37.96380 113.52149 36959 ft 495 kts 60°
2026-05-05 00:29 37.99415 113.59968 36789 ft 495 kts 60°
2026-05-05 00:29 38.00936 113.63898 36474 ft 495 kts 60°
2026-05-05 00:30 38.02453 113.67822 36098 ft 495 kts 60°
2026-05-05 00:30 38.03972 113.71754 35717 ft 496 kts 60°
2026-05-05 00:30 38.05471 113.75637 35361 ft 496 kts 60°
2026-05-05 00:30 38.06991 113.79584 34991 ft 497 kts 60°
2026-05-05 00:31 38.08506 113.83521 34641 ft 497 kts 60°
2026-05-05 00:31 38.10022 113.87465 34278 ft 498 kts 61°
2026-05-05 00:31 38.11538 113.91410 33915 ft 498 kts 61°
2026-05-05 00:31 38.13061 113.95384 33523 ft 498 kts 61°
2026-05-05 00:32 38.14576 113.99340 33101 ft 499 kts 61°
2026-05-05 00:32 38.16092 114.03305 32702 ft 500 kts 61°
2026-05-05 00:32 38.17611 114.07283 32326 ft 501 kts 61°
2026-05-05 00:32 38.19134 114.11275 31946 ft 502 kts 61°
2026-05-05 00:33 38.20659 114.15275 31542 ft 502 kts 61°
2026-05-05 00:33 38.22187 114.19271 31166 ft 503 kts 61°
2026-05-05 00:33 38.23726 114.23290 30793 ft 504 kts 62°
2026-05-05 00:33 38.25259 114.27298 30406 ft 505 kts 62°
2026-05-05 00:34 38.26777 114.31272 30058 ft 506 kts 62°
2026-05-05 00:34 38.28320 114.35322 29674 ft 507 kts 62°
2026-05-05 00:34 38.29859 114.39368 29272 ft 507 kts 62°
2026-05-05 00:34 38.31388 114.43395 28858 ft 505 kts 62°
2026-05-05 00:35 38.32873 114.47313 28451 ft 502 kts 62°
2026-05-05 00:35 38.34362 114.51249 28058 ft 499 kts 62°
2026-05-05 00:35 38.35861 114.55213 27670 ft 496 kts 62°
2026-05-05 00:35 38.37361 114.59185 27280 ft 494 kts 62°
2026-05-05 00:36 38.38840 114.63105 26883 ft 491 kts 62°
2026-05-05 00:36 38.40264 114.67060 26505 ft 490 kts 66°
2026-05-05 00:36 38.41200 114.71235 26126 ft 491 kts 78°
2026-05-05 00:36 38.41435 114.75477 25763 ft 492 kts 91°
2026-05-05 00:37 38.40992 114.79802 25398 ft 491 kts 99°
2026-05-05 00:37 38.40305 114.84072 25034 ft 490 kts 101°
2026-05-05 00:37 38.39532 114.88290 24679 ft 488 kts 102°
2026-05-05 00:37 38.38736 114.92427 24329 ft 486 kts 102°
2026-05-05 00:38 38.37919 114.96652 23973 ft 483 kts 102°
2026-05-05 00:38 38.37134 115.00745 23642 ft 481 kts 102°
2026-05-05 00:38 38.36352 115.04876 23275 ft 479 kts 102°
2026-05-05 00:38 38.35584 115.08982 22879 ft 476 kts 102°
2026-05-05 00:39 38.34819 115.13098 22485 ft 473 kts 102°
2026-05-05 00:39 38.34068 115.17150 22095 ft 470 kts 102°
2026-05-05 00:39 38.33318 115.21187 21697 ft 467 kts 102°
2026-05-05 00:39 38.32570 115.25212 21316 ft 465 kts 102°
2026-05-05 00:40 38.31825 115.29205 20936 ft 462 kts 102°
2026-05-05 00:40 38.31079 115.33194 20562 ft 459 kts 102°
2026-05-05 00:40 38.30340 115.37136 20192 ft 457 kts 102°
2026-05-05 00:40 38.29614 115.41002 19838 ft 453 kts 102°
2026-05-05 00:41 38.28976 115.44908 19471 ft 449 kts 96°
2026-05-05 00:41 38.28891 115.48867 19111 ft 444 kts 83°
2026-05-05 00:41 38.29526 115.52665 18757 ft 437 kts 68°
2026-05-05 00:41 38.30894 115.56093 18411 ft 431 kts 53°
2026-05-05 00:42 38.32886 115.58896 18051 ft 425 kts 38°
2026-05-05 00:42 38.35321 115.61005 17669 ft 420 kts 28°
2026-05-05 00:42 38.37881 115.62769 17511 ft 419 kts 25°
2026-05-05 00:42 38.40471 115.64380 17506 ft 419 kts 24°
2026-05-05 00:43 38.43141 115.65986 17512 ft 419 kts 23°
2026-05-05 00:43 38.45754 115.67556 17508 ft 420 kts 24°
2026-05-05 00:43 38.48387 115.69159 17510 ft 421 kts 24°
2026-05-05 00:43 38.51017 115.70783 17505 ft 417 kts 24°
2026-05-05 00:44 38.53571 115.72389 17502 ft 398 kts 24°
2026-05-05 00:44 38.55985 115.73918 17503 ft 379 kts 24°
2026-05-05 00:44 38.58297 115.75383 17505 ft 365 kts 24°
2026-05-05 00:44 38.60570 115.76822 17506 ft 364 kts 24°
2026-05-05 00:45 38.62838 115.78256 17510 ft 365 kts 24°
2026-05-05 00:45 38.65120 115.79714 17508 ft 366 kts 25°
2026-05-05 00:45 38.67259 115.81509 17511 ft 369 kts 36°
2026-05-05 00:45 38.69241 115.83597 17509 ft 369 kts 38°
2026-05-05 00:46 38.71211 115.85732 17504 ft 369 kts 38°
2026-05-05 00:46 38.73174 115.87856 17510 ft 370 kts 38°
2026-05-05 00:46 38.75140 115.89980 17510 ft 370 kts 38°
2026-05-05 00:46 38.77104 115.92100 17508 ft 370 kts 38°
2026-05-05 00:47 38.79065 115.94215 17514 ft 370 kts 38°
2026-05-05 00:47 38.81044 115.96349 17518 ft 370 kts 38°
2026-05-05 00:47 38.83018 115.98480 17512 ft 371 kts 38°
2026-05-05 00:47 38.84967 116.00586 17513 ft 371 kts 38°
2026-05-05 00:48 38.86939 116.02719 17513 ft 371 kts 38°
2026-05-05 00:48 38.88909 116.04849 17512 ft 371 kts 38°
2026-05-05 00:48 38.90884 116.06987 17514 ft 371 kts 38°
2026-05-05 00:48 38.92861 116.09129 17514 ft 371 kts 39°
2026-05-05 00:49 38.94833 116.11267 17514 ft 371 kts 39°
2026-05-05 00:49 38.96785 116.13385 17515 ft 371 kts 39°
2026-05-05 00:49 38.98781 116.15552 17517 ft 372 kts 39°
2026-05-05 00:49 39.00779 116.17676 17513 ft 371 kts 36°
2026-05-05 00:50 39.03005 116.19220 17511 ft 368 kts 16°
2026-05-05 00:50 39.05506 116.19628 17529 ft 363 kts 355°
2026-05-05 00:50 39.08011 116.19323 17518 ft 362 kts 351°
2026-05-05 00:50 39.10523 116.18923 17524 ft 363 kts 351°
2026-05-05 00:51 39.13037 116.18526 17514 ft 363 kts 351°
2026-05-05 00:51 39.15544 116.18138 17524 ft 364 kts 351°
2026-05-05 00:51 39.18058 116.17753 17521 ft 364 kts 351°
2026-05-05 00:51 39.20574 116.17370 17520 ft 364 kts 351°
2026-05-05 00:52 39.23092 116.16987 17521 ft 364 kts 351°
2026-05-05 00:52 39.25585 116.16609 17521 ft 364 kts 351°
2026-05-05 00:52 39.28119 116.16224 17521 ft 364 kts 351°
2026-05-05 00:52 39.30633 116.15843 17520 ft 364 kts 351°
2026-05-05 00:53 39.33126 116.15464 17522 ft 364 kts 351°
2026-05-05 00:53 39.35643 116.15083 17524 ft 364 kts 351°
2026-05-05 00:53 39.38158 116.14702 17522 ft 364 kts 351°
2026-05-05 00:53 39.40686 116.14406 17522 ft 366 kts 357°
2026-05-05 00:54 39.43199 116.14991 17533 ft 371 kts 20°
2026-05-05 00:54 39.45366 116.16803 17523 ft 374 kts 43°
2026-05-05 00:54 39.46833 116.19565 17521 ft 374 kts 66°
2026-05-05 00:54 39.47349 116.22699 17520 ft 358 kts 90°
2026-05-05 00:55 39.46920 116.25772 17515 ft 342 kts 110°
2026-05-05 00:55 39.45740 116.28381 17472 ft 335 kts 133°
2026-05-05 00:55 39.43932 116.30239 17097 ft 331 kts 154°
2026-05-05 00:55 39.41840 116.31409 16365 ft 325 kts 162°
2026-05-05 00:56 39.39715 116.32423 15422 ft 327 kts 162°
2026-05-05 00:56 39.37703 116.33686 14480 ft 333 kts 148°
2026-05-05 00:56 39.36101 116.35801 13549 ft 341 kts 126°
2026-05-05 00:56 39.35190 116.38542 12549 ft 348 kts 105°
2026-05-05 00:57 39.35079 116.41454 11659 ft 351 kts 84°
2026-05-05 00:57 39.35840 116.44402 10992 ft 342 kts 60°
2026-05-05 00:57 39.37345 116.46645 10684 ft 321 kts 36°
2026-05-05 00:57 39.39176 116.48045 10632 ft 291 kts 24°
2026-05-05 00:58 39.40962 116.49160 10466 ft 282 kts 22°
2026-05-05 00:58 39.42731 116.50236 10166 ft 280 kts 22°
2026-05-05 00:58 39.44413 116.51256 9849 ft 283 kts 22°
2026-05-05 00:58 39.46248 116.52369 9452 ft 282 kts 22°
2026-05-05 00:59 39.48025 116.53450 9077 ft 282 kts 22°
2026-05-05 00:59 39.49783 116.54518 8704 ft 281 kts 22°
2026-05-05 00:59 39.51539 116.55584 8338 ft 281 kts 22°
2026-05-05 00:59 39.52602 116.56229 8112 ft 281 kts 22°
2026-05-05 01:00 39.53966 116.57057 7829 ft 280 kts 22°
2026-05-05 01:00 39.55727 116.58130 7453 ft 279 kts 22°
2026-05-05 01:00 39.57489 116.59204 7098 ft 279 kts 22°
2026-05-05 01:00 39.59241 116.60274 6733 ft 278 kts 22°
2026-05-05 01:01 39.60991 116.61345 6366 ft 277 kts 22°
2026-05-05 01:01 39.62726 116.62407 6024 ft 275 kts 22°
2026-05-05 01:01 39.64428 116.63450 5907 ft 264 kts 22°
2026-05-05 01:01 39.66049 116.64429 5874 ft 249 kts 22°
2026-05-05 01:02 39.67582 116.65355 5880 ft 240 kts 22°
2026-05-05 01:02 39.69093 116.66260 5780 ft 238 kts 21°
2026-05-05 01:02 39.70682 116.66779 5551 ft 234 kts
2026-05-05 01:02 39.72281 116.66819 5253 ft 232 kts 352°
2026-05-05 01:03 39.73908 116.66638 4893 ft 231 kts 349°
2026-05-05 01:03 39.75491 116.66428 4547 ft 232 kts 349°
2026-05-05 01:03 39.77115 116.66183 4158 ft 232 kts 349°
2026-05-05 01:03 39.78703 116.65929 3804 ft 233 kts 350°
2026-05-05 01:04 39.80303 116.65686 3526 ft 231 kts 349°
2026-05-05 01:04 39.83513 116.65228 2934 ft 226 kts 350°
2026-05-05 01:04 39.85001 116.65016 2907 ft 216 kts 354°
2026-05-05 01:05 39.86386 116.64829 2952 ft 200 kts 352°
2026-05-05 01:05 39.87752 116.64622 3000 ft 196 kts 351°
2026-05-05 01:05 39.89085 116.64425 2980 ft 198 kts 351°
2026-05-05 01:05 39.90351 116.64222 2938 ft 200 kts 351°
2026-05-05 01:06 39.91691 116.64002 2900 ft 199 kts 351°
2026-05-05 01:06 39.93062 116.63765 2648 ft 198 kts 352°
2026-05-05 01:06 39.94406 116.63557 2382 ft 197 kts 354°
2026-05-05 01:06 39.95677 116.63364 2124 ft 186 kts 353°
2026-05-05 01:07 39.96522 116.63231 1986 ft 181 kts 353°
2026-05-05 01:07 39.97692 116.63049 1706 ft 177 kts 355°
2026-05-05 01:07 39.99250 116.62814 1458 ft 164 kts 353°
2026-05-05 01:07 40.00370 116.62628 1214 ft 157 kts 355°
2026-05-05 01:08 40.01375 116.62476 1018 ft 146 kts 355°
2026-05-05 01:08 40.02351 116.62323 830 ft 141 kts 353°
2026-05-05 01:08 40.03009 116.62219 727 ft 140 kts 354°
2026-05-05 01:08 40.03973 116.62068 536 ft 140 kts 354°
2026-05-05 01:09 40.04934 116.61923 352 ft 138 kts 354°
2026-05-05 01:09 40.05881 116.61771 176 ft 138 kts 353°
2026-05-05 01:09 40.06774 116.61626 132 ft 127 kts 353°
2026-05-05 01:09 40.07458 116.61522 125 ft 64 kts 353°
2026-05-05 01:10 40.07657 116.61490 126 ft 12 kts 352°
2026-05-05 01:10 40.07785 116.61448 125 ft 24 kts 340°
2026-05-05 01:10 40.07916 116.61350 125 ft 13 kts 324°
2026-05-05 01:10 40.07977 116.61282 126 ft 12 kts 303°
2026-05-05 01:11 40.07966 116.61238 125 ft 2 kts 189°
2026-05-05 01:11 40.07946 116.61231 128 ft 4 kts 195°
2026-05-05 01:11 40.07887 116.61220 128 ft 13 kts 179°
2026-05-05 01:11 40.07789 116.61235 128 ft 16 kts 172°
2026-05-05 01:12 40.07670 116.61255 127 ft 18 kts 172°
2026-05-05 01:12 40.07536 116.61273 125 ft 20 kts 172°
2026-05-05 01:12 40.07390 116.61298 127 ft 22 kts 173°
2026-05-05 01:12 40.07235 116.61322 124 ft 24 kts 173°
2026-05-05 01:13 40.07067 116.61348 125 ft 26 kts 173°
2026-05-05 01:13 40.06905 116.61373 127 ft 24 kts 173°
2026-05-05 01:13 40.06735 116.61401 127 ft 26 kts 173°
2026-05-05 01:13 40.06553 116.61430 128 ft 27 kts 173°
2026-05-05 01:14 40.06416 116.61450 127 ft 0 kts 176°
2026-05-05 01:14 40.06402 116.61447 127 ft 6 kts 193°
2026-05-05 01:14 40.06379 116.61406 127 ft 7 kts 250°
2026-05-05 01:14 40.06368 116.61339 127 ft 9 kts 263°
2026-05-05 01:15 40.06359 116.61241 127 ft 12 kts 263°
2026-05-05 01:15 40.06349 116.61129 125 ft 15 kts 263°
2026-05-05 01:15 40.06337 116.60995 125 ft 17 kts 263°
2026-05-05 01:15 40.06322 116.60840 125 ft 19 kts 263°
2026-05-05 01:16 40.06306 116.60671 125 ft 16 kts 263°
2026-05-05 01:16 40.06298 116.60578 127 ft 10 kts 263°
2026-05-05 01:16 40.06258 116.60524 126 ft 10 kts 192°
2026-05-05 01:16 40.06183 116.60531 127 ft 12 kts 173°
2026-05-05 01:17 40.06097 116.60545 126 ft 14 kts 173°
2026-05-05 01:17 40.06007 116.60559 126 ft 16 kts 173°
2026-05-05 01:17 40.05891 116.60577 127 ft 18 kts 173°
2026-05-05 01:17 40.05772 116.60595 127 ft 20 kts 173°
2026-05-05 01:18 40.05656 116.60613 125 ft 16 kts 175°
2026-05-05 01:18 40.05544 116.60590 125 ft 17 kts 204°
2026-05-05 01:18 40.05470 116.60515 124 ft 12 kts 227°
2026-05-05 01:18 40.05420 116.60432 127 ft 8 kts 233°
2026-05-05 01:19 40.05384 116.60387 125 ft 5 kts 198°
2026-05-05 01:19 40.05348 116.60395 126 ft 6 kts 154°
2026-05-05 01:19 40.05328 116.60412 125 ft 0 kts 144°
2026-05-05 01:20 40.05315 116.60429 125 ft 14 kts 131°